Miscellaneous Local Product
Issued by NWS North Platte, NE

Home | Current Version | Previous Version | Graphics & Text | Print | Product List | Glossary On
Versions: 1 2 3 4 5 6 7 8 9 10 11 12 13 14 15 16 17 18 19 20 21 22 23 24 25 26 27 28 29 30 31 32 33 34 35 36 37 38 39 40 41 42 43 44 45 46 47 48 49 50
423
AXUS43 KLBF 281710
MISLBF


WESTERN AND NORTH CENTRAL NEBRASKA HOURLY WEATHER ROUNDUP
NATIONAL WEATHER SERVICE NORTH PLATTE NE
1200 PM CDT THU APR 28 2016

NOTE: "FAIR" INDICATES FEW OR NO CLOUDS BELOW 12,000 FEET WITH NO
SIGNIFICANT WEATHER AND/OR OBSTRUCTIONS TO VISIBILITY.

NOTE: STATIONS NOT REPORTING VARIABLES SUCH AS SKY/WEATHER OR
PRESSURE ARE PROVIDED BY RAWS AND APRS NETWORKS AND ARE NOT UNDER
NATIONAL WEATHER SERVICE QUALITY CONTROL.

...OBSERVATIONS IN AND NEAR THE EASTERN PANHANDLE OF NEBRASKA...

CITY           SKY/WX    TMP DP  RH WIND       PRES   REMARKS
PINE RIDGE     CLOUDY    37  32  82 N7        30.04S WCI  32
CHADRON        CLOUDY    38  33  82 NE10      30.05R WCI  31
ALLIANCE       CLOUDY    37  29  72 N9        30.02R WCI  30
SIDNEY         CLOUDY    42  28  57 N13       30.01R
CRESCENT LAKE    N/A     40  31  71 N12G18      N/A  WCI  33
BIG SPRINGS      N/A     41  32  69 N8          N/A
$$

...OBSERVATIONS IN NORTHERN NEBRASKA AND FAR SOUTHERN SOUTH DAKOTA...

CITY           SKY/WX    TMP DP  RH WIND       PRES   REMARKS
WINNER         CLOUDY    40  36  86 N16       30.02R WCI  31
VALENTINE      CLOUDY    40  33  76 NW13      30.02R WCI  32
THEDFORD       CLOUDY    41  36  82 N10       30.02R
AINSWORTH      CLOUDY    40  37  87 NW13      30.01S WCI  32
O`NEILL        CLOUDY    42  39  91 NW13      29.99R
ORD            CLOUDY    44  40  85 NW16      29.97S
BROKEN BOW     CLOUDY    43  39  86 N17       30.00R
VALENTINE NWR    N/A     36  34  93 NW10G18     N/A  WCI  28
BUTTE            N/A     37  36  97 NW13        N/A  WCI  29
HALSEY           N/A     38  35  90 NW9         N/A  WCI  31
CHAMBERS         N/A     46  39  77 W6G13       N/A
EWING            N/A     43  41  93 NW12        N/A
$$

...OBSERVATIONS IN SOUTHWEST NEBRASKA AND FAR NORTHEAST COLORADO...

CITY           SKY/WX    TMP DP  RH WIND       PRES   REMARKS
IMPERIAL       MOSUNNY   46  32  58 N10G18    30.01F
OGALLALA       MOSUNNY   44  29  57 NW8       30.02R
NORTH PLATTE   CLOUDY    44  33  65 N7        30.01S
MCCOOK         MOSUNNY   49  34  56 VRB3      30.01S
LEXINGTON      CLOUDY    46  37  70 N8        30.02R
PAXTON           N/A     42  34  73 NW8         N/A
STAPLETON        N/A     41  36  81 CALM        N/A
GOTHENBURG       N/A     44  34  67 N9          N/A
CALLAWAY         N/A     41  37  86 N12         N/A
$$

...OBSERVATIONS IN CENTRAL LINCOLN COUNTY AREA...

CITY           SKY/WX    TMP DP  RH WIND       PRES   REMARKS
N.P. AIRPORT   CLOUDY    44  33  65 N7        30.01S
N.P. DOWNTOWN    N/A     43  35  72 N7          N/A
N.P. SOUTHEAST   N/A     44  34  69 N5G12       N/A
N.P. HILLCREST   N/A     43  35  74 NE12        N/A
$$

...SOME OBSERVATIONS FROM AROUND THE REGION...

CITY           SKY/WX    TMP DP  RH WIND       PRES   REMARKS
DENVER         LGT SNOW  36  31  82 E12       29.97S WCI  28
LARAMIE        CLOUDY    29  24  82 E14       29.91S WCI  18
CHEYENNE       CLOUDY    34  26  72 NE5       29.96S WCI  30
SCOTTSBLUFF    CLOUDY    43  31  62 NE10      30.00F
RAPID CITY     CLOUDY    35  33  92 NW10      30.05R WCI  27
BISMARCK       CLOUDY    50  31  48 N7        30.11R
PIERRE         CLOUDY    40  35  83 N9        30.03S WCI  34
SIOUX FALLS    CLOUDY    38  36  92 N14       29.97R WCI  30
OMAHA          CLOUDY    49  43  80 NW13      29.92R
GRAND ISLAND   CLOUDY    46  40  79 NW17      29.99R
KANSAS CITY    CLOUDY    52  45  77 W8        29.96R
WICHITA        CLOUDY    57  39  51 N13       29.99R
OKLAHOMA CITY  PTSUNNY   66  45  46 NE10      29.96S
DALLAS         SUNNY     80  54  40 SE13      29.90S
AMARILLO       SUNNY     66  44  45 E24G33    29.89F
DODGE CITY     PTSUNNY   50  31  48 N13       30.01R
HAYS           PTSUNNY   48  30  49 NW10      30.01F
GOODLAND       PTSUNNY   46  30  53 N14G20    30.00S
$$




USA.gov is the U.S. government's official web portal to all federal, state and local government web resources and services.